Wetterdaten: Mittwoch, 12.02.2014
Datum Zeit Temperatur Luftfeuchte Luftdruck Regen Wind Richtung Richtung Taupunkt Windchill Windben
12.02.2014 00:00 -3,4 C 87 % 1007,6 hPa 0,0 l/m 0,2 km/h (0 Bft) NO 45 -5,2 C -3,7 C 0,0 km/h (0 Bft)
12.02.2014 00:05 -3,5 C 87 % 1007,6 hPa 0,0 l/m 0,2 km/h (0 Bft) NO 45 -5,3 C -3,8 C 0,0 km/h (0 Bft)
12.02.2014 00:10 -3,6 C 87 % 1007,6 hPa 0,0 l/m 0,2 km/h (0 Bft) NO 45 -5,4 C -4,0 C 3,4 km/h (1 Bft)
12.02.2014 00:15 -3,5 C 88 % 1007,6 hPa 0,0 l/m 0,3 km/h (0 Bft) N-NO 22 -5,2 C -3,9 C 0,0 km/h (0 Bft)
12.02.2014 00:20 -3,7 C 87 % 1007,6 hPa 0,0 l/m 0,3 km/h (0 Bft) NO 45 -5,5 C -3,9 C 0,0 km/h (0 Bft)
12.02.2014 00:25 -3,8 C 87 % 1007,8 hPa 0,0 l/m 0,0 km/h (0 Bft) NO 45 -5,6 C -3,9 C 0,0 km/h (0 Bft)
12.02.2014 00:30 -3,8 C 87 % 1007,8 hPa 0,0 l/m 0,0 km/h (0 Bft) NO 45 -5,6 C -4,1 C 0,0 km/h (0 Bft)
12.02.2014 00:35 -3,3 C 88 % 1007,8 hPa 0,0 l/m 0,3 km/h (0 Bft) O 90 -5,0 C -4,1 C 1,8 km/h (1 Bft)
12.02.2014 00:40 -3,6 C 88 % 1007,8 hPa 0,0 l/m 0,8 km/h (0 Bft) SO 135 -5,3 C -3,9 C 4,3 km/h (1 Bft)
12.02.2014 00:45 -3,6 C 88 % 1007,6 hPa 0,0 l/m 0,5 km/h (0 Bft) SO 135 -5,3 C -3,8 C 0,0 km/h (0 Bft)
12.02.2014 00:50 -3,7 C 88 % 1007,6 hPa 0,0 l/m 0,0 km/h (0 Bft) NO 45 -5,4 C -3,8 C 0,0 km/h (0 Bft)
12.02.2014 00:55 -3,7 C 88 % 1007,6 hPa 0,0 l/m 0,0 km/h (0 Bft) NO 45 -5,4 C -3,9 C 0,0 km/h (0 Bft)
12.02.2014 01:00 -4,0 C 87 % 1007,6 hPa 0,0 l/m 0,0 km/h (0 Bft) NO 45 -5,8 C -4,0 C 0,0 km/h (0 Bft)
12.02.2014 01:05 -3,4 C 88 % 1007,9 hPa 0,0 l/m 0,0 km/h (0 Bft) O-SO 112 -5,1 C -4,1 C 1,9 km/h (1 Bft)
12.02.2014 01:10 -3,0 C 88 % 1007,9 hPa 0,0 l/m 0,2 km/h (0 Bft) NO 45 -4,7 C -3,9 C 0,0 km/h (0 Bft)
12.02.2014 01:15 -3,3 C 88 % 1007,9 hPa 0,0 l/m 0,3 km/h (0 Bft) N 360 -5,0 C -3,9 C 1,8 km/h (1 Bft)
12.02.2014 01:20 -3,6 C 88 % 1007,9 hPa 0,0 l/m 0,3 km/h (0 Bft) N 360 -5,3 C -3,9 C 0,0 km/h (0 Bft)
12.02.2014 01:25 -3,5 C 88 % 1008,1 hPa 0,0 l/m 0,2 km/h (0 Bft) N-NO 22 -5,2 C -4,1 C 0,0 km/h (0 Bft)
12.02.2014 01:30 -3,4 C 88 % 1008,1 hPa 0,0 l/m 0,0 km/h (0 Bft) N-NO 22 -5,1 C -4,1 C 0,0 km/h (0 Bft)
12.02.2014 01:35 -3,8 C 88 % 1008,1 hPa 0,0 l/m 0,0 km/h (0 Bft) W-SW 247 -5,5 C -4,2 C 0,0 km/h (0 Bft)
12.02.2014 01:40 -3,9 C 88 % 1008,1 hPa 0,0 l/m 0,3 km/h (0 Bft) S-SO 157 -5,6 C -4,2 C 0,0 km/h (0 Bft)
12.02.2014 01:45 -3,7 C 88 % 1007,9 hPa 0,0 l/m 0,8 km/h (0 Bft) SO 135 -5,4 C -4,2 C 5,3 km/h (1 Bft)
12.02.2014 01:50 -3,3 C 88 % 1007,9 hPa 0,0 l/m 1,8 km/h (1 Bft) NO 45 -5,0 C -4,0 C 2,6 km/h (1 Bft)
12.02.2014 01:55 -3,1 C 89 % 1007,9 hPa 0,0 l/m 2,7 km/h (1 Bft) NO 45 -4,6 C -4,5 C 6,4 km/h (2 Bft)
12.02.2014 02:00 -3,3 C 89 % 1007,9 hPa 0,0 l/m 2,4 km/h (1 Bft) W-SW 247 -4,8 C -3,9 C 6,6 km/h (2 Bft)
12.02.2014 02:05 -3,5 C 89 % 1008,1 hPa 0,0 l/m 1,9 km/h (1 Bft) O-SO 112 -5,0 C -3,7 C 0,0 km/h (0 Bft)
12.02.2014 02:10 -3,8 C 89 % 1008,1 hPa 0,0 l/m 1,0 km/h (0 Bft) SW 225 -5,3 C -4,0 C 0,0 km/h (0 Bft)
12.02.2014 02:15 -3,5 C 89 % 1008,1 hPa 0,0 l/m 1,0 km/h (0 Bft) O 90 -5,0 C -4,0 C 5,0 km/h (1 Bft)
12.02.2014 02:20 -3,1 C 89 % 1008,1 hPa 0,0 l/m 3,4 km/h (1 Bft) NO 45 -4,6 C -4,7 C 9,0 km/h (2 Bft)
12.02.2014 02:25 -2,9 C 90 % 1008,0 hPa 0,0 l/m 4,3 km/h (1 Bft) NO 45 -4,3 C -4,9 C 4,0 km/h (1 Bft)
12.02.2014 02:30 -2,8 C 90 % 1008,0 hPa 0,0 l/m 3,4 km/h (1 Bft) O-NO 67 -4,2 C -4,2 C 4,5 km/h (1 Bft)
12.02.2014 02:35 -2,7 C 90 % 1008,0 hPa 0,0 l/m 3,2 km/h (1 Bft) O-SO 112 -4,1 C -3,9 C 4,5 km/h (1 Bft)
12.02.2014 02:40 -2,8 C 90 % 1008,0 hPa 0,0 l/m 2,3 km/h (1 Bft) O 90 -4,2 C -3,2 C 4,8 km/h (1 Bft)
12.02.2014 02:45 -3,2 C 90 % 1008,0 hPa 0,0 l/m 1,1 km/h (1 Bft) W-NW 292 -4,6 C -3,2 C 0,0 km/h (0 Bft)
12.02.2014 02:50 -3,5 C 90 % 1008,0 hPa 0,0 l/m 0,5 km/h (0 Bft) O-SO 112 -4,9 C -3,6 C 2,1 km/h (1 Bft)
12.02.2014 02:55 -3,2 C 90 % 1008,0 hPa 0,0 l/m 1,8 km/h (1 Bft) N-NO 22 -4,6 C -3,6 C 2,4 km/h (1 Bft)
12.02.2014 03:00 -3,2 C 90 % 1008,0 hPa 0,0 l/m 3,1 km/h (1 Bft) O-NO 67 -4,6 C -4,2 C 0,0 km/h (0 Bft)
12.02.2014 03:05 -3,2 C 90 % 1007,9 hPa 0,0 l/m 2,1 km/h (1 Bft) O-SO 112 -4,6 C -3,4 C 6,9 km/h (2 Bft)
12.02.2014 03:10 -3,0 C 90 % 1007,9 hPa 0,0 l/m 2,4 km/h (1 Bft) O-SO 112 -4,4 C -3,7 C 2,4 km/h (1 Bft)
12.02.2014 03:15 -3,3 C 90 % 1007,9 hPa 0,0 l/m 2,6 km/h (1 Bft) N 360 -4,7 C -3,9 C 2,1 km/h (1 Bft)
12.02.2014 03:20 -3,2 C 90 % 1007,9 hPa 0,0 l/m 2,4 km/h (1 Bft) NO 45 -4,6 C -4,0 C 5,0 km/h (1 Bft)
12.02.2014 03:25 -3,2 C 90 % 1008,2 hPa 0,0 l/m 2,6 km/h (1 Bft) NO 45 -4,6 C -3,9 C 0,0 km/h (0 Bft)
12.02.2014 03:28 -3,8 C 90 % 1008,2 hPa 0,0 l/m 1,4 km/h (1 Bft) N 360 -5,2 C -3,9 C 0,0 km/h (0 Bft)
12.02.2014 03:30 -3,8 C 90 % 1008,2 hPa 0,0 l/m 1,4 km/h (1 Bft) N 360 -5,2 C -3,9 C 0,0 km/h (0 Bft)
12.02.2014 03:35 -4,0 C 90 % 1008,2 hPa 0,0 l/m 0,3 km/h (0 Bft) N-NW 337 -5,4 C -4,2 C 0,0 km/h (0 Bft)
12.02.2014 03:40 -4,1 C 89 % 1008,2 hPa 0,0 l/m 0,2 km/h (0 Bft) N-NW 337 -5,6 C -4,4 C 0,0 km/h (0 Bft)
12.02.2014 03:45 -4,2 C 89 % 1008,4 hPa 0,0 l/m 0,2 km/h (0 Bft) O-SO 112 -5,7 C -4,4 C 0,0 km/h (0 Bft)
12.02.2014 03:50 -4,3 C 89 % 1008,4 hPa 0,0 l/m 0,2 km/h (0 Bft) W-NW 292 -5,8 C -4,5 C 0,0 km/h (0 Bft)
12.02.2014 03:55 -4,2 C 89 % 1008,4 hPa 0,0 l/m 0,2 km/h (0 Bft) N 360 -5,7 C -4,6 C 2,3 km/h (1 Bft)
12.02.2014 04:00 -3,1 C 90 % 1008,4 hPa 0,0 l/m 1,1 km/h (1 Bft) O 90 -4,5 C -4,5 C 3,7 km/h (1 Bft)
12.02.2014 04:05 -2,9 C 90 % 1008,8 hPa 0,0 l/m 2,7 km/h (1 Bft) O-SO 112 -4,3 C -4,7 C 4,3 km/h (1 Bft)
12.02.2014 04:10 -3,8 C 90 % 1008,8 hPa 0,0 l/m 2,3 km/h (1 Bft) NW 315 -5,2 C -4,2 C 0,0 km/h (0 Bft)
12.02.2014 04:15 -4,2 C 90 % 1008,8 hPa 0,0 l/m 0,5 km/h (0 Bft) N 360 -5,6 C -4,2 C 0,0 km/h (0 Bft)
12.02.2014 04:20 -4,1 C 89 % 1008,8 hPa 0,0 l/m 0,0 km/h (0 Bft) N-NW 337 -5,6 C -4,4 C 0,0 km/h (0 Bft)
12.02.2014 04:25 -4,0 C 89 % 1009,2 hPa 0,0 l/m 0,0 km/h (0 Bft) N 360 -5,5 C -4,7 C 0,0 km/h (0 Bft)
12.02.2014 04:30 -3,9 C 89 % 1009,2 hPa 0,0 l/m 0,3 km/h (0 Bft) NO 45 -5,4 C -4,6 C 0,0 km/h (0 Bft)
12.02.2014 04:35 -4,3 C 89 % 1009,2 hPa 0,0 l/m 0,3 km/h (0 Bft) NW 315 -5,8 C -4,6 C 0,0 km/h (0 Bft)
12.02.2014 04:40 -4,7 C 89 % 1009,2 hPa 0,0 l/m 0,0 km/h (0 Bft) NO 45 -6,2 C -4,9 C 1,9 km/h (1 Bft)
12.02.2014 04:45 -3,7 C 90 % 1009,4 hPa 0,0 l/m 2,3 km/h (1 Bft) O-NO 67 -5,1 C -4,9 C 5,1 km/h (1 Bft)
12.02.2014 04:50 -4,2 C 89 % 1009,4 hPa 0,0 l/m 2,3 km/h (1 Bft) NO 45 -5,7 C -4,7 C 0,0 km/h (0 Bft)
12.02.2014 04:55 -4,4 C 89 % 1009,4 hPa 0,0 l/m 0,6 km/h (0 Bft) NO 45 -5,9 C -4,6 C 0,0 km/h (0 Bft)
12.02.2014 05:00 -4,4 C 89 % 1009,4 hPa 0,0 l/m 0,5 km/h (0 Bft) O-SO 112 -5,9 C -4,8 C 0,0 km/h (0 Bft)
12.02.2014 05:05 -4,6 C 89 % 1009,6 hPa 0,0 l/m 0,3 km/h (0 Bft) NO 45 -6,1 C -4,8 C 0,0 km/h (0 Bft)
12.02.2014 05:10 -4,5 C 89 % 1009,6 hPa 0,0 l/m 0,6 km/h (0 Bft) NO 45 -6,0 C -5,0 C 5,0 km/h (1 Bft)
12.02.2014 05:15 -4,2 C 90 % 1009,6 hPa 0,0 l/m 1,1 km/h (1 Bft) NO 45 -5,6 C -4,9 C 2,3 km/h (1 Bft)
12.02.2014 05:20 -4,9 C 89 % 1009,6 hPa 0,0 l/m 0,6 km/h (0 Bft) NO 45 -6,4 C -5,0 C 0,0 km/h (0 Bft)
12.02.2014 05:25 -4,5 C 89 % 1010,0 hPa 0,0 l/m 0,6 km/h (0 Bft) NO 45 -6,0 C -5,1 C 0,0 km/h (0 Bft)
12.02.2014 05:30 -4,8 C 89 % 1010,0 hPa 0,0 l/m 0,5 km/h (0 Bft) N-NO 22 -6,3 C -5,2 C 0,0 km/h (0 Bft)
12.02.2014 05:35 -4,7 C 89 % 1010,0 hPa 0,0 l/m 0,0 km/h (0 Bft) N-NO 22 -6,2 C -5,3 C 0,0 km/h (0 Bft)
12.02.2014 05:40 -4,6 C 89 % 1010,0 hPa 0,0 l/m 0,0 km/h (0 Bft) NO 45 -6,1 C -5,3 C 0,0 km/h (0 Bft)
12.02.2014 05:45 -4,6 C 89 % 1010,4 hPa 0,0 l/m 0,5 km/h (0 Bft) S-SO 157 -6,1 C -5,2 C 2,3 km/h (1 Bft)
12.02.2014 05:50 -4,6 C 89 % 1010,4 hPa 0,0 l/m 0,8 km/h (0 Bft) SO 135 -6,1 C -5,1 C 0,0 km/h (0 Bft)
12.02.2014 05:55 -4,0 C 90 % 1010,4 hPa 0,0 l/m 1,3 km/h (1 Bft) NO 45 -5,4 C -5,0 C 6,0 km/h (2 Bft)
12.02.2014 06:00 -3,3 C 90 % 1010,4 hPa 0,0 l/m 2,9 km/h (1 Bft) N-NO 22 -4,7 C -5,1 C 6,4 km/h (2 Bft)
12.02.2014 06:05 -3,1 C 91 % 1010,6 hPa 0,0 l/m 3,2 km/h (1 Bft) O 90 -4,4 C -4,9 C 0,0 km/h (0 Bft)
12.02.2014 06:10 -2,7 C 91 % 1010,6 hPa 0,0 l/m 3,7 km/h (1 Bft) O-SO 112 -4,0 C -4,7 C 9,2 km/h (2 Bft)
12.02.2014 06:15 -2,4 C 91 % 1010,6 hPa 0,0 l/m 4,8 km/h (1 Bft) O-SO 112 -3,7 C -4,8 C 8,9 km/h (2 Bft)
12.02.2014 06:20 -2,0 C 91 % 1010,6 hPa 0,0 l/m 6,1 km/h (2 Bft) SO 135 -3,3 C -5,1 C 6,4 km/h (2 Bft)
12.02.2014 06:25 -1,8 C 91 % 1011,1 hPa 0,0 l/m 6,1 km/h (2 Bft) SO 135 -3,1 C -4,7 C 7,4 km/h (2 Bft)
12.02.2014 06:30 -1,6 C 90 % 1011,1 hPa 0,0 l/m 6,0 km/h (2 Bft) S 180 -3,0 C -4,3 C 7,1 km/h (2 Bft)
12.02.2014 06:35 -1,5 C 90 % 1011,1 hPa 0,0 l/m 5,5 km/h (1 Bft) O-SO 112 -2,9 C -4,1 C 5,0 km/h (1 Bft)
12.02.2014 06:40 -1,3 C 90 % 1011,1 hPa 0,0 l/m 4,8 km/h (1 Bft) SO 135 -2,7 C -3,5 C 7,1 km/h (2 Bft)
12.02.2014 06:45 -1,1 C 89 % 1011,2 hPa 0,0 l/m 4,7 km/h (1 Bft) O-SO 112 -2,7 C -3,4 C 4,8 km/h (1 Bft)
12.02.2014 06:50 -1,2 C 89 % 1011,2 hPa 0,0 l/m 4,5 km/h (1 Bft) SO 135 -2,8 C -3,3 C 7,4 km/h (2 Bft)
12.02.2014 06:55 -1,2 C 89 % 1011,2 hPa 0,0 l/m 3,9 km/h (1 Bft) S 180 -2,8 C -2,9 C 4,0 km/h (1 Bft)
12.02.2014 07:00 -1,4 C 88 % 1011,2 hPa 0,0 l/m 3,9 km/h (1 Bft) O-SO 112 -3,1 C -3,2 C 3,2 km/h (1 Bft)
12.02.2014 07:05 -1,3 C 88 % 1011,5 hPa 0,0 l/m 4,2 km/h (1 Bft) S 180 -3,0 C -3,6 C 4,2 km/h (1 Bft)
12.02.2014 07:10 -1,3 C 88 % 1011,5 hPa 0,0 l/m 4,3 km/h (1 Bft) S-SW 202 -3,0 C -3,7 C 11,6 km/h (2 Bft)
12.02.2014 07:15 -1,5 C 87 % 1011,5 hPa 0,0 l/m 4,8 km/h (1 Bft) O 90 -3,4 C -3,8 C 5,3 km/h (1 Bft)
12.02.2014 07:20 -1,3 C 87 % 1011,5 hPa 0,0 l/m 6,6 km/h (2 Bft) S 180 -3,2 C -4,5 C 7,2 km/h (2 Bft)
12.02.2014 07:25 -1,4 C 87 % 1011,7 hPa 0,0 l/m 6,6 km/h (2 Bft) SW 225 -3,3 C -4,5 C 6,8 km/h (2 Bft)
12.02.2014 07:30 -1,0 C 86 % 1011,7 hPa 0,0 l/m 6,3 km/h (2 Bft) S 180 -3,0 C -4,0 C 8,5 km/h (2 Bft)
12.02.2014 07:35 -0,8 C 85 % 1011,7 hPa 0,0 l/m 6,3 km/h (2 Bft) SO 135 -3,0 C -3,9 C 10,6 km/h (2 Bft)
12.02.2014 07:40 -0,6 C 85 % 1011,7 hPa 0,0 l/m 6,1 km/h (2 Bft) O-SO 112 -2,8 C -3,6 C 6,3 km/h (2 Bft)
12.02.2014 07:45 -0,2 C 84 % 1011,9 hPa 0,0 l/m 6,1 km/h (2 Bft) SO 135 -2,6 C -3,4 C 7,9 km/h (2 Bft)
12.02.2014 07:50 0,4 C 81 % 1011,9 hPa 0,0 l/m 6,6 km/h (2 Bft) O-SO 112 -2,5 C -3,4 C 13,5 km/h (3 Bft)
12.02.2014 07:55 0,5 C 80 % 1011,9 hPa 0,0 l/m 7,1 km/h (2 Bft) S-SO 157 -2,5 C -4,0 C 10,5 km/h (2 Bft)
12.02.2014 08:00 0,9 C 79 % 1011,9 hPa 0,0 l/m 6,1 km/h (2 Bft) O-SO 112 -2,3 C -2,3 C 6,9 km/h (2 Bft)
12.02.2014 08:05 1,0 C 78 % 1012,4 hPa 0,0 l/m 6,0 km/h (2 Bft) S-SO 157 -2,4 C -2,0 C 7,1 km/h (2 Bft)
12.02.2014 08:10 1,0 C 77 % 1012,4 hPa 0,0 l/m 5,5 km/h (1 Bft) O-SO 112 -2,6 C -1,6 C 6,4 km/h (2 Bft)
12.02.2014 08:15 1,0 C 77 % 1012,4 hPa 0,0 l/m 5,3 km/h (1 Bft) O-SO 112 -2,6 C -1,5 C 6,4 km/h (2 Bft)
12.02.2014 08:20 1,1 C 76 % 1012,4 hPa 0,0 l/m 5,5 km/h (1 Bft) S-SO 157 -2,6 C -1,5 C 4,8 km/h (1 Bft)
12.02.2014 08:25 1,0 C 77 % 1012,8 hPa 0,0 l/m 4,7 km/h (1 Bft) S 180 -2,6 C -1,1 C 6,1 km/h (2 Bft)
12.02.2014 08:28 1,0 C 77 % 1012,8 hPa 0,0 l/m 4,2 km/h (1 Bft) S-SW 202 -2,6 C -0,7 C 10,6 km/h (2 Bft)
12.02.2014 08:30 1,0 C 77 % 1012,8 hPa 0,0 l/m 4,2 km/h (1 Bft) S-SW 202 -2,6 C -0,7 C 10,6 km/h (2 Bft)
12.02.2014 08:35 1,1 C 76 % 1012,8 hPa 0,0 l/m 5,6 km/h (1 Bft) S 180 -2,6 C -1,4 C 8,5 km/h (2 Bft)
12.02.2014 08:40 1,0 C 75 % 1012,8 hPa 0,0 l/m 8,0 km/h (2 Bft) S-SW 202 -2,9 C -4,1 C 15,9 km/h (3 Bft)
12.02.2014 08:45 0,9 C 76 % 1012,8 hPa 0,0 l/m 8,2 km/h (2 Bft) S 180 -2,8 C -4,3 C 7,4 km/h (2 Bft)
12.02.2014 08:50 0,7 C 77 % 1012,8 hPa 0,0 l/m 7,1 km/h (2 Bft) S-SW 202 -2,9 C -2,8 C 7,1 km/h (2 Bft)
12.02.2014 08:55 0,6 C 77 % 1012,8 hPa 0,0 l/m 6,6 km/h (2 Bft) S-SO 157 -3,0 C -2,0 C 7,2 km/h (2 Bft)
12.02.2014 09:00 0,5 C 79 % 1012,8 hPa 0,0 l/m 7,4 km/h (2 Bft) S 180 -2,7 C -3,3 C 19,8 km/h (3 Bft)
12.02.2014 09:05 0,5 C 80 % 1012,8 hPa 0,0 l/m 6,9 km/h (2 Bft) S 180 -2,5 C -2,6 C 5,8 km/h (2 Bft)
12.02.2014 09:10 0,6 C 81 % 1012,8 hPa 0,0 l/m 6,0 km/h (2 Bft) S 180 -2,3 C -1,4 C 8,2 km/h (2 Bft)
12.02.2014 09:15 0,7 C 82 % 1012,8 hPa 0,0 l/m 6,4 km/h (2 Bft) S 180 -2,0 C -1,5 C 13,2 km/h (3 Bft)
12.02.2014 09:20 0,7 C 83 % 1012,8 hPa 0,0 l/m 7,2 km/h (2 Bft) SO 135 -1,8 C -2,6 C 8,5 km/h (2 Bft)
12.02.2014 09:25 0,9 C 83 % 1012,9 hPa 0,0 l/m 7,1 km/h (2 Bft) S 180 -1,7 C -2,4 C 10,8 km/h (2 Bft)
12.02.2014 09:30 0,9 C 83 % 1012,9 hPa 0,0 l/m 5,5 km/h (1 Bft) O 90 -1,7 C -0,9 C 6,9 km/h (2 Bft)
12.02.2014 09:35 0,9 C 83 % 1012,9 hPa 0,0 l/m 5,3 km/h (1 Bft) S-SO 157 -1,7 C -0,7 C 6,0 km/h (2 Bft)
12.02.2014 09:40 0,9 C 83 % 1012,9 hPa 0,0 l/m 5,1 km/h (1 Bft) S 180 -1,7 C -0,7 C 4,3 km/h (1 Bft)
12.02.2014 09:45 1,0 C 82 % 1012,9 hPa 0,0 l/m 4,5 km/h (1 Bft) S 180 -1,7 C -0,3 C 4,5 km/h (1 Bft)
12.02.2014 09:50 1,4 C 80 % 1012,9 hPa 0,0 l/m 3,7 km/h (1 Bft) SO 135 -1,7 C 0,5 C 5,1 km/h (1 Bft)
12.02.2014 09:55 1,6 C 79 % 1012,9 hPa 0,0 l/m 3,9 km/h (1 Bft) S-SO 157 -1,6 C 0,8 C 6,4 km/h (2 Bft)
12.02.2014 10:00 1,8 C 77 % 1012,9 hPa 0,0 l/m 5,0 km/h (1 Bft) S-SO 157 -1,8 C 0,4 C 6,9 km/h (2 Bft)
12.02.2014 10:05 1,9 C 77 % 1013,2 hPa 0,0 l/m 5,6 km/h (1 Bft) SO 135 -1,7 C 0,4 C 9,0 km/h (2 Bft)
12.02.2014 10:10 2,4 C 76 % 1013,2 hPa 0,0 l/m 6,0 km/h (2 Bft) SO 135 -1,4 C 0,6 C 7,1 km/h (2 Bft)
12.02.2014 10:15 2,5 C 74 % 1013,2 hPa 0,0 l/m 6,3 km/h (2 Bft) S 180 -1,7 C 0,8 C 7,2 km/h (2 Bft)
12.02.2014 10:20 2,4 C 73 % 1013,2 hPa 0,0 l/m 6,4 km/h (2 Bft) S 180 -1,9 C 1,1 C 9,5 km/h (2 Bft)
12.02.2014 10:25 2,3 C 73 % 1013,2 hPa 0,0 l/m 6,3 km/h (2 Bft) SO 135 -2,0 C 1,1 C 6,8 km/h (2 Bft)
12.02.2014 10:30 2,5 C 73 % 1013,2 hPa 0,0 l/m 6,6 km/h (2 Bft) S-SO 157 -1,8 C 0,7 C 7,2 km/h (2 Bft)
12.02.2014 10:35 2,6 C 73 % 1013,2 hPa 0,0 l/m 6,1 km/h (2 Bft) S-SO 157 -1,7 C 1,2 C 6,6 km/h (2 Bft)
12.02.2014 10:40 2,5 C 73 % 1013,2 hPa 0,0 l/m 5,6 km/h (1 Bft) SO 135 -1,8 C 1,6 C 4,8 km/h (1 Bft)
12.02.2014 10:45 2,6 C 73 % 1013,4 hPa 0,0 l/m 5,1 km/h (1 Bft) S-SO 157 -1,7 C 1,9 C 5,1 km/h (1 Bft)
12.02.2014 10:50 2,7 C 72 % 1013,4 hPa 0,0 l/m 5,6 km/h (1 Bft) S 180 -1,8 C 1,7 C 7,2 km/h (2 Bft)
12.02.2014 10:55 2,8 C 71 % 1013,4 hPa 0,0 l/m 6,4 km/h (2 Bft) S 180 -1,9 C 1,6 C 7,6 km/h (2 Bft)
12.02.2014 11:00 2,9 C 69 % 1013,4 hPa 0,0 l/m 6,6 km/h (2 Bft) S-SW 202 -2,2 C 1,5 C 7,2 km/h (2 Bft)
12.02.2014 11:05 3,1 C 69 % 1013,5 hPa 0,0 l/m 6,4 km/h (2 Bft) S-SW 202 -2,0 C 1,8 C 7,6 km/h (2 Bft)
12.02.2014 11:10 3,2 C 69 % 1013,5 hPa 0,0 l/m 5,5 km/h (1 Bft) S 180 -1,9 C 2,5 C 6,8 km/h (2 Bft)
12.02.2014 11:15 3,2 C 68 % 1013,5 hPa 0,0 l/m 5,5 km/h (1 Bft) S 180 -2,1 C 2,8 C 8,2 km/h (2 Bft)
12.02.2014 11:20 3,0 C 67 % 1013,5 hPa 0,0 l/m 6,6 km/h (2 Bft) W-SW 247 -2,5 C 2,0 C 6,3 km/h (2 Bft)
12.02.2014 11:25 3,2 C 68 % 1013,7 hPa 0,0 l/m 6,9 km/h (2 Bft) S 180 -2,1 C 1,6 C 5,5 km/h (1 Bft)
12.02.2014 11:30 3,2 C 69 % 1013,7 hPa 0,0 l/m 5,6 km/h (1 Bft) S 180 -1,9 C 2,7 C 6,1 km/h (2 Bft)
12.02.2014 11:35 3,0 C 69 % 1013,7 hPa 0,0 l/m 5,8 km/h (2 Bft) NO 45 -2,1 C 2,5 C 6,0 km/h (2 Bft)
12.02.2014 11:40 3,0 C 70 % 1013,7 hPa 0,0 l/m 6,4 km/h (2 Bft) SO 135 -1,9 C 2,1 C 4,8 km/h (1 Bft)
12.02.2014 11:45 3,2 C 70 % 1013,8 hPa 0,0 l/m 7,1 km/h (2 Bft) S 180 -1,7 C 1,2 C 11,3 km/h (2 Bft)
12.02.2014 11:50 3,3 C 71 % 1013,8 hPa 0,0 l/m 7,6 km/h (2 Bft) S-SO 157 -1,4 C 0,7 C 12,6 km/h (3 Bft)
12.02.2014 11:55 3,3 C 71 % 1013,8 hPa 0,0 l/m 8,4 km/h (2 Bft) S 180 -1,4 C -0,3 C 15,8 km/h (3 Bft)
12.02.2014 12:00 3,2 C 71 % 1013,8 hPa 0,0 l/m 8,2 km/h (2 Bft) S-SO 157 -1,5 C -0,2 C 7,2 km/h (2 Bft)
12.02.2014 12:05 3,4 C 71 % 1013,7 hPa 0,0 l/m 7,7 km/h (2 Bft) S 180 -1,3 C 0,4 C 7,1 km/h (2 Bft)
12.02.2014 12:10 3,8 C 71 % 1013,7 hPa 0,0 l/m 6,4 km/h (2 Bft) S 180 -1,0 C 2,7 C 7,6 km/h (2 Bft)
12.02.2014 12:15 3,9 C 70 % 1013,7 hPa 0,0 l/m 6,0 km/h (2 Bft) W 270 -1,1 C 3,0 C 5,3 km/h (1 Bft)
12.02.2014 12:20 4,5 C 69 % 1013,7 hPa 0,0 l/m 5,8 km/h (2 Bft) S 180 -0,7 C 4,6 C 7,9 km/h (2 Bft)
12.02.2014 12:25 3,9 C 69 % 1013,7 hPa 0,0 l/m 6,0 km/h (2 Bft) SW 225 -1,3 C 4,4 C 6,0 km/h (2 Bft)
12.02.2014 12:30 3,9 C 70 % 1013,7 hPa 0,0 l/m 5,3 km/h (1 Bft) SO 135 -1,1 C 4,4 C 7,6 km/h (2 Bft)
12.02.2014 12:35 4,0 C 69 % 1013,7 hPa 0,0 l/m 4,8 km/h (1 Bft) S 180 -1,2 C 4,4 C 6,8 km/h (2 Bft)
12.02.2014 12:40 4,2 C 70 % 1013,7 hPa 0,0 l/m 5,0 km/h (1 Bft) S 180 -0,8 C 4,3 C 3,2 km/h (1 Bft)
12.02.2014 12:45 4,1 C 69 % 1013,7 hPa 0,0 l/m 4,8 km/h (1 Bft) S-SO 157 -1,1 C 4,4 C 4,8 km/h (1 Bft)
12.02.2014 12:50 4,0 C 69 % 1013,7 hPa 0,0 l/m 5,8 km/h (2 Bft) S 180 -1,2 C 4,1 C 7,2 km/h (2 Bft)
12.02.2014 12:55 3,5 C 69 % 1013,7 hPa 0,0 l/m 6,9 km/h (2 Bft) S-SW 202 -1,6 C 3,1 C 6,4 km/h (2 Bft)
12.02.2014 13:00 3,6 C 70 % 1013,7 hPa 0,0 l/m 6,4 km/h (2 Bft) S 180 -1,3 C 3,1 C 6,8 km/h (2 Bft)
12.02.2014 13:05 3,8 C 70 % 1013,7 hPa 0,0 l/m 6,1 km/h (2 Bft) S 180 -1,2 C 3,2 C 6,6 km/h (2 Bft)
12.02.2014 13:10 4,2 C 70 % 1013,7 hPa 0,0 l/m 6,0 km/h (2 Bft) W-SW 247 -0,8 C 3,4 C 7,9 km/h (2 Bft)
12.02.2014 13:15 4,1 C 70 % 1013,7 hPa 0,0 l/m 6,1 km/h (2 Bft) S-SW 202 -0,9 C 3,4 C 10,0 km/h (2 Bft)
12.02.2014 13:20 3,4 C 70 % 1013,7 hPa 0,0 l/m 7,6 km/h (2 Bft) S 180 -1,5 C 1,3 C 8,4 km/h (2 Bft)
12.02.2014 13:25 3,5 C 70 % 1013,8 hPa 0,0 l/m 7,4 km/h (2 Bft) S 180 -1,4 C 1,4 C 7,7 km/h (2 Bft)
12.02.2014 13:29 4,1 C 69 % 1013,8 hPa 0,0 l/m 6,0 km/h (2 Bft) SW 225 -1,1 C 3,3 C 7,2 km/h (2 Bft)
12.02.2014 13:30 4,1 C 69 % 1013,8 hPa 0,0 l/m 6,0 km/h (2 Bft) SW 225 -1,1 C 3,3 C 7,2 km/h (2 Bft)
12.02.2014 13:35 4,1 C 69 % 1013,8 hPa 0,0 l/m 5,1 km/h (1 Bft) W-SW 247 -1,1 C 4,0 C 2,7 km/h (1 Bft)
12.02.2014 13:40 3,8 C 69 % 1013,8 hPa 0,0 l/m 4,3 km/h (1 Bft) S 180 -1,4 C 4,6 C 6,4 km/h (2 Bft)
12.02.2014 13:45 3,8 C 69 % 1013,7 hPa 0,0 l/m 5,0 km/h (1 Bft) S 180 -1,4 C 4,1 C 7,4 km/h (2 Bft)
12.02.2014 13:50 3,9 C 68 % 1013,7 hPa 0,0 l/m 6,6 km/h (2 Bft) S-SO 157 -1,5 C 3,3 C 9,2 km/h (2 Bft)
12.02.2014 13:55 3,8 C 66 % 1013,7 hPa 0,0 l/m 7,6 km/h (2 Bft) S-SO 157 -2,0 C 2,1 C 12,7 km/h (3 Bft)
12.02.2014 14:00 4,3 C 66 % 1013,7 hPa 0,0 l/m 7,7 km/h (2 Bft) S-SW 202 -1,5 C 2,2 C 9,3 km/h (2 Bft)
12.02.2014 14:05 4,4 C 64 % 1013,6 hPa 0,0 l/m 7,4 km/h (2 Bft) S-SW 202 -1,8 C 2,8 C 10,0 km/h (2 Bft)
12.02.2014 14:10 4,8 C 63 % 1013,6 hPa 0,0 l/m 7,6 km/h (2 Bft) W 270 -1,6 C 3,0 C 6,8 km/h (2 Bft)
12.02.2014 14:15 4,5 C 62 % 1013,6 hPa 0,0 l/m 7,7 km/h (2 Bft) W-SW 247 -2,1 C 3,0 C 6,4 km/h (2 Bft)
12.02.2014 14:20 4,8 C 62 % 1013,6 hPa 0,0 l/m 6,9 km/h (2 Bft) S 180 -1,9 C 4,0 C 6,4 km/h (2 Bft)
12.02.2014 14:25 4,5 C 62 % 1013,4 hPa 0,0 l/m 6,3 km/h (2 Bft) S 180 -2,1 C 4,5 C 10,8 km/h (2 Bft)
12.02.2014 14:30 3,9 C 63 % 1013,4 hPa 0,0 l/m 6,4 km/h (2 Bft) S-SW 202 -2,5 C 3,8 C 10,3 km/h (2 Bft)
12.02.2014 14:35 3,8 C 64 % 1013,4 hPa 0,0 l/m 7,6 km/h (2 Bft) S 180 -2,4 C 1,8 C 7,2 km/h (2 Bft)
12.02.2014 14:40 3,6 C 65 % 1013,4 hPa 0,0 l/m 6,8 km/h (2 Bft) S 180 -2,4 C 2,4 C 6,4 km/h (2 Bft)
12.02.2014 14:45 4,5 C 61 % 1013,4 hPa 0,0 l/m 6,8 km/h (2 Bft) W 270 -2,4 C 2,7 C 7,1 km/h (2 Bft)
12.02.2014 14:50 3,9 C 61 % 1013,4 hPa 0,0 l/m 7,1 km/h (2 Bft) S 180 -2,9 C 2,8 C 7,4 km/h (2 Bft)
12.02.2014 14:55 4,0 C 62 % 1013,4 hPa 0,0 l/m 6,8 km/h (2 Bft) S-SO 157 -2,6 C 3,0 C 8,9 km/h (2 Bft)
12.02.2014 15:00 3,9 C 60 % 1013,4 hPa 0,0 l/m 6,8 km/h (2 Bft) S 180 -3,1 C 3,0 C 7,4 km/h (2 Bft)
12.02.2014 15:05 3,7 C 62 % 1013,1 hPa 0,0 l/m 6,3 km/h (2 Bft) S-SO 157 -2,9 C 3,6 C 5,0 km/h (1 Bft)
12.02.2014 15:10 4,4 C 63 % 1013,1 hPa 0,0 l/m 6,4 km/h (2 Bft) W-SW 247 -2,0 C 3,2 C 7,4 km/h (2 Bft)
12.02.2014 15:15 4,3 C 63 % 1013,1 hPa 0,0 l/m 6,9 km/h (2 Bft) SW 225 -2,1 C 2,9 C 8,0 km/h (2 Bft)
12.02.2014 15:20 3,8 C 63 % 1013,1 hPa 0,0 l/m 6,1 km/h (2 Bft) W-SW 247 -2,6 C 3,3 C 5,1 km/h (1 Bft)
12.02.2014 15:25 4,2 C 63 % 1013,2 hPa 0,0 l/m 5,5 km/h (1 Bft) S-SW 202 -2,2 C 3,3 C 6,8 km/h (2 Bft)
12.02.2014 15:30 4,7 C 60 % 1013,2 hPa 0,0 l/m 5,6 km/h (1 Bft) S-SO 157 -2,4 C 3,8 C 7,6 km/h (2 Bft)
12.02.2014 15:35 4,6 C 59 % 1013,2 hPa 0,0 l/m 5,8 km/h (2 Bft) S-SO 157 -2,7 C 3,9 C 7,9 km/h (2 Bft)
12.02.2014 15:40 4,4 C 59 % 1013,2 hPa 0,0 l/m 6,1 km/h (2 Bft) S 180 -2,9 C 4,4 C 7,6 km/h (2 Bft)
12.02.2014 15:45 4,3 C 59 % 1013,0 hPa 0,0 l/m 6,6 km/h (2 Bft) W-SW 247 -3,0 C 4,1 C 7,4 km/h (2 Bft)
12.02.2014 15:50 4,2 C 59 % 1013,0 hPa 0,0 l/m 6,0 km/h (2 Bft) S-SW 202 -3,1 C 4,6 C 7,2 km/h (2 Bft)
12.02.2014 15:55 3,8 C 61 % 1013,0 hPa 0,0 l/m 5,1 km/h (1 Bft) W-SW 247 -3,0 C 4,8 C 6,8 km/h (2 Bft)
12.02.2014 16:00 3,4 C 63 % 1013,0 hPa 0,0 l/m 5,6 km/h (1 Bft) W-SW 247 -3,0 C 4,6 C 6,0 km/h (2 Bft)
12.02.2014 16:05 3,2 C 64 % 1012,8 hPa 0,0 l/m 6,0 km/h (2 Bft) W-SW 247 -2,9 C 4,2 C 6,4 km/h (2 Bft)
12.02.2014 16:10 3,0 C 65 % 1012,8 hPa 0,0 l/m 5,1 km/h (1 Bft) W 270 -2,9 C 3,3 C 2,9 km/h (1 Bft)
12.02.2014 16:15 3,0 C 65 % 1012,8 hPa 0,0 l/m 4,7 km/h (1 Bft) NW 315 -2,9 C 2,8 C 4,8 km/h (1 Bft)
12.02.2014 16:20 2,7 C 67 % 1012,8 hPa 0,0 l/m 3,4 km/h (1 Bft) N-NO 22 -2,8 C 2,8 C 2,9 km/h (1 Bft)
12.02.2014 16:25 2,6 C 67 % 1012,5 hPa 0,0 l/m 3,1 km/h (1 Bft) N 360 -2,9 C 2,7 C 2,9 km/h (1 Bft)
12.02.2014 16:30 2,4 C 68 % 1012,5 hPa 0,0 l/m 3,2 km/h (1 Bft) NO 45 -2,9 C 2,3 C 3,1 km/h (1 Bft)
12.02.2014 16:35 2,3 C 68 % 1012,5 hPa 0,0 l/m 3,2 km/h (1 Bft) NO 45 -3,0 C 2,1 C 1,6 km/h (1 Bft)
12.02.2014 16:40 2,1 C 68 % 1012,5 hPa 0,0 l/m 2,6 km/h (1 Bft) O-NO 67 -3,2 C 2,2 C 3,9 km/h (1 Bft)
12.02.2014 16:45 2,0 C 69 % 1012,2 hPa 0,0 l/m 2,3 km/h (1 Bft) NO 45 -3,1 C 2,0 C 2,6 km/h (1 Bft)
12.02.2014 16:50 1,9 C 69 % 1012,2 hPa 0,0 l/m 3,1 km/h (1 Bft) NO 45 -3,2 C 1,4 C 4,5 km/h (1 Bft)
12.02.2014 16:55 1,8 C 70 % 1012,2 hPa 0,0 l/m 3,1 km/h (1 Bft) NO 45 -3,1 C 1,4 C 3,2 km/h (1 Bft)
12.02.2014 17:00 1,8 C 71 % 1012,2 hPa 0,0 l/m 3,1 km/h (1 Bft) NO 45 -2,9 C 1,1 C 5,3 km/h (1 Bft)
12.02.2014 17:05 1,6 C 71 % 1011,9 hPa 0,0 l/m 3,4 km/h (1 Bft) NO 45 -3,1 C 0,9 C 5,1 km/h (1 Bft)
12.02.2014 17:10 1,4 C 72 % 1011,9 hPa 0,0 l/m 4,0 km/h (1 Bft) NO 45 -3,1 C 0,3 C 4,8 km/h (1 Bft)
12.02.2014 17:15 1,3 C 72 % 1011,9 hPa 0,0 l/m 3,9 km/h (1 Bft) NO 45 -3,2 C 0,4 C 4,0 km/h (1 Bft)
12.02.2014 17:20 1,0 C 73 % 1011,9 hPa 0,0 l/m 3,4 km/h (1 Bft) NO 45 -3,3 C 0,4 C 3,9 km/h (1 Bft)
12.02.2014 17:25 0,9 C 74 % 1011,8 hPa 0,0 l/m 3,2 km/h (1 Bft) N-NO 22 -3,2 C 0,3 C 3,9 km/h (1 Bft)
12.02.2014 17:30 0,6 C 74 % 1011,8 hPa 0,0 l/m 3,2 km/h (1 Bft) O-NO 67 -3,5 C 0,1 C 4,3 km/h (1 Bft)
12.02.2014 17:35 0,5 C 75 % 1011,8 hPa 0,0 l/m 3,5 km/h (1 Bft) NO 45 -3,4 C -0,2 C 4,2 km/h (1 Bft)
12.02.2014 17:40 0,3 C 76 % 1011,8 hPa 0,0 l/m 3,9 km/h (1 Bft) NO 45 -3,4 C -0,7 C 3,5 km/h (1 Bft)
12.02.2014 17:45 0,0 C 76 % 1011,4 hPa 0,0 l/m 3,4 km/h (1 Bft) N 360 -3,7 C -0,6 C 2,6 km/h (1 Bft)
12.02.2014 17:50 -0,1 C 77 % 1011,4 hPa 0,0 l/m 2,9 km/h (1 Bft) NO 45 -3,6 C -0,7 C 3,1 km/h (1 Bft)
12.02.2014 17:55 -0,3 C 77 % 1011,4 hPa 0,0 l/m 3,2 km/h (1 Bft) NO 45 -3,8 C -1,2 C 4,5 km/h (1 Bft)
12.02.2014 18:00 -0,5 C 78 % 1011,4 hPa 0,0 l/m 3,5 km/h (1 Bft) N-NO 22 -3,9 C -1,4 C 0,0 km/h (0 Bft)
12.02.2014 18:05 -0,9 C 78 % 1011,2 hPa 0,0 l/m 2,7 km/h (1 Bft) NO 45 -4,2 C -1,1 C 2,4 km/h (1 Bft)
12.02.2014 18:10 -1,1 C 78 % 1011,2 hPa 0,0 l/m 1,6 km/h (1 Bft) NO 45 -4,4 C -1,0 C 2,1 km/h (1 Bft)
12.02.2014 18:15 -1,3 C 78 % 1011,2 hPa 0,0 l/m 2,3 km/h (1 Bft) NO 45 -4,6 C -1,2 C 5,6 km/h (1 Bft)
12.02.2014 18:20 -1,4 C 79 % 1011,2 hPa 0,0 l/m 1,6 km/h (1 Bft) O-NO 67 -4,6 C -1,3 C 0,0 km/h (0 Bft)
12.02.2014 18:23 -1,7 C 79 % 1011,2 hPa 0,0 l/m 1,0 km/h (0 Bft) NO 45 -4,8 C -1,6 C 0,0 km/h (0 Bft)
12.02.2014 18:25 -1,7 C 79 % 1011,2 hPa 0,0 l/m 1,0 km/h (0 Bft) NO 45 -4,8 C -1,6 C 0,0 km/h (0 Bft)
12.02.2014 18:30 -1,9 C 79 % 1011,2 hPa 0,0 l/m 0,0 km/h (0 Bft) NO 45 -5,0 C -2,0 C 0,0 km/h (0 Bft)
12.02.2014 18:35 -2,2 C 79 % 1011,2 hPa 0,0 l/m 0,0 km/h (0 Bft) O-NO 67 -5,3 C -2,4 C 0,0 km/h (0 Bft)
12.02.2014 18:40 -2,0 C 79 % 1011,2 hPa 0,0 l/m 0,0 km/h (0 Bft) O-NO 67 -5,1 C -2,6 C 0,0 km/h (0 Bft)
12.02.2014 18:45 -2,2 C 80 % 1011,1 hPa 0,0 l/m 0,2 km/h (0 Bft) O-NO 67 -5,2 C -2,7 C 0,0 km/h (0 Bft)
12.02.2014 18:50 -2,2 C 80 % 1011,1 hPa 0,0 l/m 0,3 km/h (0 Bft) O-NO 67 -5,2 C -2,8 C 1,6 km/h (1 Bft)
12.02.2014 18:55 -2,2 C 81 % 1011,1 hPa 0,0 l/m 0,5 km/h (0 Bft) O-NO 67 -5,0 C -2,9 C 1,9 km/h (1 Bft)
12.02.2014 19:00 -1,3 C 83 % 1011,1 hPa 0,0 l/m 2,4 km/h (1 Bft) N 360 -3,8 C -2,9 C 4,5 km/h (1 Bft)
12.02.2014 19:05 -1,3 C 83 % 1011,2 hPa 0,0 l/m 3,4 km/h (1 Bft) O-NO 67 -3,8 C -3,7 C 4,3 km/h (1 Bft)
12.02.2014 19:10 -1,8 C 83 % 1011,2 hPa 0,0 l/m 1,8 km/h (1 Bft) N-NO 22 -4,3 C -2,9 C 0,0 km/h (0 Bft)
12.02.2014 19:15 -2,5 C 82 % 1011,2 hPa 0,0 l/m 0,5 km/h (0 Bft) O 90 -5,1 C -3,2 C 0,0 km/h (0 Bft)
12.02.2014 19:20 -2,4 C 83 % 1011,2 hPa 0,0 l/m 0,2 km/h (0 Bft) NO 45 -4,9 C -3,5 C 0,0 km/h (0 Bft)
12.02.2014 19:25 -2,7 C 83 % 1010,8 hPa 0,0 l/m 0,2 km/h (0 Bft) N 360 -5,2 C -3,6 C 0,0 km/h (0 Bft)
12.02.2014 19:30 -2,8 C 83 % 1010,8 hPa 0,0 l/m 0,5 km/h (0 Bft) NO 45 -5,3 C -3,6 C 0,0 km/h (0 Bft)
12.02.2014 19:35 -2,7 C 83 % 1010,8 hPa 0,0 l/m 0,5 km/h (0 Bft) O 90 -5,2 C -3,6 C 0,0 km/h (0 Bft)
12.02.2014 19:40 -3,3 C 83 % 1010,8 hPa 0,0 l/m 0,0 km/h (0 Bft) N 360 -5,8 C -3,6 C 0,0 km/h (0 Bft)
12.02.2014 19:45 -3,4 C 83 % 1010,6 hPa 0,0 l/m 0,0 km/h (0 Bft) O 90 -5,9 C -3,9 C 0,0 km/h (0 Bft)
12.02.2014 19:50 -3,6 C 84 % 1010,6 hPa 0,0 l/m 0,2 km/h (0 Bft) N-NO 22 -5,9 C -4,0 C 0,0 km/h (0 Bft)
12.02.2014 19:55 -3,5 C 84 % 1010,6 hPa 0,0 l/m 0,6 km/h (0 Bft) O-NO 67 -5,8 C -3,9 C 2,7 km/h (1 Bft)
12.02.2014 20:00 -3,1 C 85 % 1010,6 hPa 0,0 l/m 1,6 km/h (1 Bft) NO 45 -5,3 C -3,6 C 3,5 km/h (1 Bft)
12.02.2014 20:05 -2,8 C 85 % 1009,9 hPa 0,0 l/m 1,3 km/h (1 Bft) NO 45 -5,0 C -3,4 C 0,0 km/h (0 Bft)
12.02.2014 20:10 -3,5 C 85 % 1009,9 hPa 0,0 l/m 0,5 km/h (0 Bft) W-NW 292 -5,6 C -3,4 C 0,0 km/h (0 Bft)
12.02.2014 20:15 -3,9 C 84 % 1009,9 hPa 0,0 l/m 0,2 km/h (0 Bft) W-NW 292 -6,2 C -3,7 C 0,0 km/h (0 Bft)
12.02.2014 20:20 -4,2 C 84 % 1009,9 hPa 0,0 l/m 0,0 km/h (0 Bft) W-NW 292 -6,5 C -4,3 C 0,0 km/h (0 Bft)
12.02.2014 20:25 -4,2 C 84 % 1009,4 hPa 0,0 l/m 0,0 km/h (0 Bft) W-NW 292 -6,5 C -4,4 C 0,0 km/h (0 Bft)
12.02.2014 20:30 -4,1 C 84 % 1009,4 hPa 0,0 l/m 0,0 km/h (0 Bft) O 90 -6,4 C -4,5 C 0,0 km/h (0 Bft)
12.02.2014 20:35 -3,8 C 85 % 1009,4 hPa 0,0 l/m 0,3 km/h (0 Bft) NO 45 -5,9 C -4,5 C 2,7 km/h (1 Bft)
12.02.2014 20:40 -4,2 C 85 % 1009,4 hPa 0,0 l/m 0,6 km/h (0 Bft) N 360 -6,3 C -4,5 C 0,0 km/h (0 Bft)
12.02.2014 20:45 -4,3 C 85 % 1009,2 hPa 0,0 l/m 0,5 km/h (0 Bft) W-SW 247 -6,4 C -4,5 C 2,3 km/h (1 Bft)
12.02.2014 20:50 -4,5 C 85 % 1009,2 hPa 0,0 l/m 0,6 km/h (0 Bft) S 180 -6,6 C -4,5 C 0,0 km/h (0 Bft)
12.02.2014 20:55 -4,5 C 85 % 1009,2 hPa 0,0 l/m 1,0 km/h (0 Bft) S-SO 157 -6,6 C -4,6 C 2,6 km/h (1 Bft)
12.02.2014 21:00 -4,5 C 86 % 1009,2 hPa 0,0 l/m 1,0 km/h (0 Bft) W-SW 247 -6,5 C -4,5 C 2,7 km/h (1 Bft)
12.02.2014 21:05 -4,8 C 85 % 1009,2 hPa 0,0 l/m 1,0 km/h (0 Bft) O-SO 112 -6,9 C -4,8 C 2,6 km/h (1 Bft)
12.02.2014 21:10 -4,3 C 86 % 1009,2 hPa 0,0 l/m 1,8 km/h (1 Bft) S-SO 157 -6,3 C -4,8 C 6,0 km/h (2 Bft)
12.02.2014 21:15 -3,6 C 87 % 1009,2 hPa 0,0 l/m 3,7 km/h (1 Bft) O 90 -5,4 C -5,8 C 7,2 km/h (2 Bft)
12.02.2014 21:20 -3,2 C 88 % 1009,2 hPa 0,0 l/m 5,0 km/h (1 Bft) N 360 -4,9 C -6,0 C 2,6 km/h (1 Bft)
12.02.2014 21:25 -3,9 C 88 % 1009,1 hPa 0,0 l/m 3,7 km/h (1 Bft) N-NO 22 -5,6 C -5,2 C 2,7 km/h (1 Bft)
12.02.2014 21:30 -3,7 C 88 % 1009,1 hPa 0,0 l/m 1,6 km/h (1 Bft) NO 45 -5,4 C -4,2 C 2,9 km/h (1 Bft)
12.02.2014 21:35 -3,7 C 88 % 1009,1 hPa 0,0 l/m 1,6 km/h (1 Bft) SO 135 -5,4 C -4,2 C 3,9 km/h (1 Bft)
12.02.2014 21:40 -3,1 C 88 % 1009,1 hPa 0,0 l/m 3,9 km/h (1 Bft) S-SO 157 -4,8 C -5,2 C 5,8 km/h (2 Bft)
12.02.2014 21:45 -3,4 C 88 % 1008,7 hPa 0,0 l/m 4,0 km/h (1 Bft) S 180 -5,1 C -5,3 C 4,5 km/h (1 Bft)
12.02.2014 21:50 -4,3 C 87 % 1008,7 hPa 0,0 l/m 2,3 km/h (1 Bft) N 360 -6,1 C -4,3 C 2,1 km/h (1 Bft)
12.02.2014 21:55 -4,6 C 87 % 1008,7 hPa 0,0 l/m 1,3 km/h (1 Bft) N 360 -6,4 C -4,4 C 0,0 km/h (0 Bft)
12.02.2014 22:00 -4,4 C 87 % 1008,7 hPa 0,0 l/m 0,2 km/h (0 Bft) S-SO 157 -6,2 C -5,0 C 0,0 km/h (0 Bft)
12.02.2014 22:05 -4,3 C 87 % 1008,6 hPa 0,0 l/m 0,8 km/h (0 Bft) S 180 -6,1 C -5,0 C 4,8 km/h (1 Bft)
12.02.2014 22:10 -4,5 C 87 % 1008,6 hPa 0,0 l/m 2,7 km/h (1 Bft) SO 135 -6,3 C -5,4 C 3,2 km/h (1 Bft)
12.02.2014 22:15 -4,8 C 87 % 1008,6 hPa 0,0 l/m 3,2 km/h (1 Bft) S-SO 157 -6,6 C -5,8 C 3,9 km/h (1 Bft)
12.02.2014 22:20 -4,3 C 87 % 1008,6 hPa 0,0 l/m 4,2 km/h (1 Bft) S-SO 157 -6,1 C -6,1 C 5,6 km/h (1 Bft)
12.02.2014 22:25 -4,4 C 87 % 1008,8 hPa 0,0 l/m 4,7 km/h (1 Bft) S-SO 157 -6,2 C -6,3 C 4,7 km/h (1 Bft)
12.02.2014 22:30 -3,9 C 88 % 1008,8 hPa 0,0 l/m 4,5 km/h (1 Bft) NO 45 -5,6 C -6,2 C 6,0 km/h (2 Bft)
12.02.2014 22:35 -3,3 C 88 % 1008,8 hPa 0,0 l/m 4,2 km/h (1 Bft) NO 45 -5,0 C -5,9 C 1,6 km/h (1 Bft)
12.02.2014 22:40 -4,1 C 87 % 1008,8 hPa 0,0 l/m 1,9 km/h (1 Bft) W 270 -5,9 C -4,4 C 1,9 km/h (1 Bft)
12.02.2014 22:45 -3,6 C 87 % 1008,8 hPa 0,0 l/m 1,6 km/h (1 Bft) O 90 -5,4 C -4,6 C 5,6 km/h (1 Bft)
12.02.2014 22:50 -3,3 C 87 % 1008,8 hPa 0,0 l/m 3,2 km/h (1 Bft) O-SO 112 -5,1 C -5,3 C 3,2 km/h (1 Bft)
12.02.2014 22:55 -2,8 C 86 % 1008,8 hPa 0,0 l/m 3,7 km/h (1 Bft) O-SO 112 -4,8 C -5,6 C 3,5 km/h (1 Bft)
12.02.2014 23:00 -4,0 C 84 % 1008,8 hPa 0,0 l/m 1,8 km/h (1 Bft) O 90 -6,3 C -4,6 C 7,4 km/h (2 Bft)
12.02.2014 23:05 -3,1 C 84 % 1008,8 hPa 0,0 l/m 2,7 km/h (1 Bft) NO 45 -5,4 C -5,2 C 6,6 km/h (2 Bft)
12.02.2014 23:10 -3,6 C 82 % 1008,8 hPa 0,0 l/m 3,5 km/h (1 Bft) W-NW 292 -6,2 C -5,4 C 0,0 km/h (0 Bft)
12.02.2014 23:15 -4,2 C 81 % 1008,8 hPa 0,0 l/m 2,4 km/h (1 Bft) N-NO 22 -7,0 C -4,9 C 6,0 km/h (2 Bft)
12.02.2014 23:20 -4,1 C 82 % 1008,8 hPa 0,0 l/m 2,3 km/h (1 Bft) NO 45 -6,7 C -4,8 C 2,3 km/h (1 Bft)
12.02.2014 23:23 -4,2 C 82 % 1008,5 hPa 0,0 l/m 1,9 km/h (1 Bft) W-NW 292 -6,8 C -4,7 C 0,0 km/h (0 Bft)
12.02.2014 23:25 -4,2 C 82 % 1008,5 hPa 0,0 l/m 1,9 km/h (1 Bft) W-NW 292 -6,8 C -4,7 C 0,0 km/h (0 Bft)
12.02.2014 23:30 -4,7 C 82 % 1008,5 hPa 0,0 l/m 0,3 km/h (0 Bft) NO 45 -7,3 C -4,9 C 0,0 km/h (0 Bft)
12.02.2014 23:35 -4,4 C 82 % 1008,5 hPa 0,0 l/m 0,0 km/h (0 Bft) NO 45 -7,0 C -5,0 C 0,0 km/h (0 Bft)
12.02.2014 23:40 -4,7 C 82 % 1008,5 hPa 0,0 l/m 0,0 km/h (0 Bft) S 180 -7,3 C -5,2 C 0,0 km/h (0 Bft)
12.02.2014 23:45 -4,8 C 82 % 1008,5 hPa 0,0 l/m 0,0 km/h (0 Bft) O 90 -7,4 C -5,2 C 0,0 km/h (0 Bft)
12.02.2014 23:50 -4,8 C 82 % 1008,5 hPa 0,0 l/m 0,0 km/h (0 Bft) NO 45 -7,4 C -5,2 C 0,0 km/h (0 Bft)
12.02.2014 23:55 -4,3 C 83 % 1008,5 hPa 0,0 l/m 1,1 km/h (1 Bft) W-SW 247 -6,7 C -5,1 C 4,0 km/h (1 Bft)
_ Min-Zeit 05:20 15:50 01:00 - 23:50 - - 23:50 22:25 23:50
Minimum _ -4,9 C 59 % 1007,6 hPa - 0,0 km/h (0 Bft) - - -7,4 C -6,3 C 0,0 km/h (0 Bft)
_ Max-Zeit 14:20 06:25 13:40 23:55 11:55 - - 12:20 15:55 09:00
Maximum _ 4,8 C 91 % 1013,8 hPa 0,0 l/m 8,4 km/h
S (2 Bft)
- - -0,7 C 4,8 C 19,8 km/h
S (3 Bft)
Durchschnitt _ -0,8 C 80 % 1010,9 hPa #0,0 l/m 3,4 km/h (1 Bft) S - -3,9 C -1,8 C 4,4 km/h (1 Bft)